Location: Filler
(36.7551°N, 30.4456°E)
Time: 16:04:58
(UTC+00:00)

NOSS 2-2 (E) - Pass Details

Date: 19 September 2024
Orbit: 399 x 1743 km, 63.3° (Epoch: 11 October)

Event Time Altitude Azimuth Distance (km) Brightness Sun altitude
Exits shadow 01:44:36 13° 150° (SSE) 1,521 5.6 -24.1°
Maximum altitude 01:46:21 17° 117° (ESE) 1,239 5.6 -23.8°
Drops below altitude 10° 01:48:33 10° 75° (ENE) 1,518 6.7 -23.4°
Sets 01:50:58 0° 53° (NE) 2,326 7.8 -22.9°
